Location: Round Knob
(37.2473°N, 88.7376°W)
Time: 20:48:05
(UTC+00:00)

N. Korean satellite - Pass Details

Date: 01 October 2021
Orbit: 450 x 495 km, 97.3° (Epoch: 23 October)

Event Time Altitude Azimuth Distance (km) Brightness Sun altitude
Rises 10:10:02 0° 34° (NE) 2,554 10.9 -20.7°
Reaches altitude 10° 10:12:58 10° 61° (ENE) 1,677 10.4 -20.2°
Maximum altitude 10:14:52 14° 93° (E) 1,458 10.0 -19.8°
Drops below altitude 10° 10:16:47 10° 125° (SE) 1,680 9.9 -19.4°
Sets 10:19:43 0° 152° (SSE) 2,561 10.5 -18.8°
